Location: Bletchingley
(51.2333°N, 0.1000°W)
Time: 03:57:28
(UTC+00:00)

Meteor 1-22 Rocket - Pass Details

Date: 18 September 2020
Orbit: 786 x 941 km, 81.2° (Epoch: 19 October)

Event Time Altitude Azimuth Distance (km) Brightness Sun altitude
Exits shadow 20:43:06 49° 159° (SSE) 1,160 4.5 -23.6°
Maximum altitude 20:44:39 68° 97° (E) 980 4.2 -23.8°
Drops below altitude 10° 20:50:39 10° 17° (NNE) 2,645 7.0 -24.6°
Sets 20:53:11 0° 15° (NNE) 3,605 7.8 -24.9°
